Current Version              Previous Version:    01  02  03  04  05  06  07  08  09  10  11  12  13  14  15  16  17  18  19  20  21  22  23  24  25  26  27  28  29  30  
   31  32  33  34  35  36  37  38  39  40  41  42  43  44  45  46  47  48  49  50  51  52  53  54  55  56  57  58  59  60  

[Printable]
229
ASUS44 KFWD 251815
RWRTX
NORTH TEXAS HOURLY WEATHER ROUNDUP
NATIONAL WEATHER SERVICE FORT WORTH TX
100 PM CDT FRI JUL 25 2014

NOTE: "FAIR" INDICATES FEW OR NO CLOUDS BELOW 12,000 FEET WITH NO
SIGNIFICANT WEATHER AND/OR OBSTRUCTIONS TO VISIBILITY.

TXZ118-119-251900-
DALLAS/FORT WORTH METROPLEX

CITY           SKY/WX    TMP DP  RH WIND       PRES   REMARKS
DFW AIRPORT    MOSUNNY   95  68  41 S8        29.99F HX  99
6HR MIN TEMP:  74; 6HR MAX TEMP:  95;

DALLAS LOVE    MOSUNNY   95  67  39 SW6G17    29.98F HX  99
6HR MIN TEMP:  75; 6HR MAX TEMP:  95;

FTW MEACHAM    SUNNY     95  67  39 S9G18     29.98F HX  99
6HR MIN TEMP:  75; 6HR MAX TEMP:  96;

DAL-EXECUTIVE  SUNNY     95  68  41 SW5       29.99F HX  99
6HR MIN TEMP:  74; 6HR MAX TEMP:  96;

FTW-ALLIANCE   MOSUNNY   94  68  42 SW8       29.98F HX  98
6HR MIN TEMP:  73; 6HR MAX TEMP:  94;

FTW-NAS-JRB    MOSUNNY   99  64  31 S9G18     30.03F HX 101
6HR MIN TEMP:  78; 6HR MAX TEMP:  99;

FTW-SPINKS     MOSUNNY   95  64  36 S9        30.02F HX  97
ARLINGTON      SUNNY     95  67  39 SW8       29.99F HX  99
6HR MIN TEMP:  71; 6HR MAX TEMP:  95;

GRAND PRAIRIE  SUNNY     93  63  36 S12       30.00F HX  94
ADDISON        SUNNY     93  66  40 S7        30.00F HX  96
MESQUITE       SUNNY     93  66  40 S9        30.00F HX  96
LANCASTER      SUNNY     94  66  40 W5        30.00F HX  97
6HR MIN TEMP:  67; 6HR MAX TEMP:  94;

$$

TXZ091>094-102>105-117-120-121-131>134-251900-
NORTH CENTRAL TEXAS

CITY           SKY/WX    TMP DP  RH WIND       PRES   REMARKS
SHRMAN/DENISON SUNNY     92  67  44 SW9       30.01F HX  95
6HR MIN TEMP:  74; 6HR MAX TEMP:  92;

GAINESVILLE    SUNNY     91  69  47 SW12      30.01F HX  95
6HR MIN TEMP:  70; 6HR MAX TEMP:  91;

BOWIE          SUNNY     92  68  46 S8        30.00F HX  96
6HR MIN TEMP:  69; 6HR MAX TEMP:  92;

BRIDGEPORT     SUNNY     92  64  38 S5        30.01F HX  93
6HR MIN TEMP:  69; 6HR MAX TEMP:  92;

DECATUR        SUNNY     92  64  39 W8        30.01F HX  94
6HR MIN TEMP:  74; 6HR MAX TEMP:  92;

DENTON         SUNNY     92  69  47 S8        29.99F HX  97
6HR MIN TEMP:  73; 6HR MAX TEMP:  92;

MCKINNEY       SUNNY     92  69  47 SW9       30.00F HX  97
6HR MIN TEMP:  71; 6HR MAX TEMP:  92;

GREENVILLE     SUNNY     90  66  45 SW3       30.01F HX  92
ROCKWALL       SUNNY     91  71  51 SW8       29.99F HX  96
6HR MIN TEMP:  72; 6HR MAX TEMP:  91;

TERRELL        MOSUNNY   93  67  42 SW8G18    30.00F HX  96
6HR MIN TEMP:  72; 6HR MAX TEMP:  94;

WAXAHACHIE     SUNNY     93  63  36 S9        30.01F HX  94
6HR MIN TEMP:  69; 6HR MAX TEMP:  93;

CLEBURNE       SUNNY     91  70  49 VRB5G12   30.02F HX  97
GRANBURY       SUNNY     96  65  35 S9        30.01F HX  99
6HR MIN TEMP:  75; 6HR MAX TEMP:  96;

$$

TXZ083>090-098>101-113>116-127>130-139>142-154-155-251900-
WESTERN NORTH TEXAS

CITY           SKY/WX    TMP DP  RH WIND       PRES   REMARKS
WICHITA FALLS  SUNNY     94  68  42 S15       29.96F HX  98
6HR MIN TEMP:  71; 6HR MAX TEMP:  94;

WF-KICKAPOO    SUNNY     94  61  32 S10G17    29.98F HX  94
6HR MIN TEMP:  71; 6HR MAX TEMP:  95;

VERNON         SUNNY     97  61  30 SW14G20   29.97F HX  97
ABILENE        SUNNY     91  64  40 S12       30.05F HX  92
6HR MIN TEMP:  72; 6HR MAX TEMP:  92;

ABILENE-DYESS  MOSUNNY   92  64  39 S9        30.03F HX  93
6HR MIN TEMP:  69; 6HR MAX TEMP:  92;

BRECKENRIDGE   SUNNY     94  60  32 SW10G16   30.01F HAZE    HX  94
6HR MIN TEMP:  74; 6HR MAX TEMP:  94;

GRAHAM         SUNNY     95  62  33 SW7       29.99F HX  96
6HR MIN TEMP:  71; 6HR MAX TEMP:  95;

MINERAL WELLS  SUNNY     95  65  37 VRB7      29.99F HX  97
6HR MIN TEMP:  71; 6HR MAX TEMP:  95;

STEPHENVILLE   SUNNY     91  64  39 S9        30.06F HX  93
6HR MIN TEMP:  70; 6HR MAX TEMP:  92;

COMANCHE       SUNNY     92  65  40 S9        30.04F HX  93
6HR MIN TEMP:  69; 6HR MAX TEMP:  92;

BROWNWOOD      SUNNY     91  66  43 SW10      30.04F HX  94
COLEMAN        SUNNY     91  62  39 SW9       30.06F HX  91
6HR MIN TEMP:  71; 6HR MAX TEMP:  91;

BRADY          SUNNY     91  66  43 S8        30.05F HX  94
$$

TXZ143>147-156>162-174-175-251900-
CENTRAL TEXAS

CITY           SKY/WX    TMP DP  RH WIND       PRES   REMARKS
WACO           MOSUNNY   94  70  45 S10       30.00F HX 100
6HR MIN TEMP:  71; 6HR MAX TEMP:  95;

WACO-MCGREGOR  MOSUNNY   93  68  43 SW7       30.01F HX  97
6HR MIN TEMP:  72; 6HR MAX TEMP:  95;

HILLSBORO      SUNNY     94  67  42 SW3       30.00F HX  97
6HR MIN TEMP:  73; 6HR MAX TEMP:  94;

CORSICANA      SUNNY     93  69  45 S7        30.02F HX  98
6HR MIN TEMP:  73; 6HR MAX TEMP:  94;

MEXIA          PTSUNNY   90  73  57 SW7       30.01F HX  97
6HR MIN TEMP:  71; 6HR MAX TEMP:  90;

CAMERON        PTSUNNY   91  72  53 S9        30.02F HX  99
6HR MIN TEMP:  75; 6HR MAX TEMP:  91;

TEMPLE         MOSUNNY   91  66  43 S10       30.02F HX  94
6HR MIN TEMP:  72; 6HR MAX TEMP:  91;

KILLEEN        MOSUNNY   91  70  49 S12       30.03F HX  97
KILLEEN-SKYLRK PTSUNNY   93  70  46 SW5       30.02F HX  99
6HR MIN TEMP:  73; 6HR MAX TEMP:  93;

FORT HOOD      MOSUNNY   95  68  41 S8        30.02F HX  99
6HR MIN TEMP:  75; 6HR MAX TEMP:  95;

GATESVILLE     MOSUNNY   91  68  46 SW5       30.04F HX  95
HAMILTON       MOSUNNY   92  66  42 SW5       30.05F HX  94
6HR MIN TEMP:  71; 6HR MAX TEMP:  92;

LAMPASAS       PTSUNNY   91  72  54 CALM      30.03F HX  98
6HR MIN TEMP:  71; 6HR MAX TEMP:  91;

$$

TXZ095>097-106>112-122>126-135>138-148>153-164>167-251900-
EAST TEXAS

CITY           SKY/WX    TMP DP  RH WIND       PRES   REMARKS
PARIS          MOSUNNY   88  72  58 S9        30.03S HX  94
6HR MIN TEMP:  70; 6HR MAX TEMP:  88; 6HR PCP:  0.02;

SULPHUR SPRNGS MOSUNNY   90  71  54 S7        30.04F HX  96
6HR MIN TEMP:  71; 6HR MAX TEMP:  90;

CLARKSVILLE    MOSUNNY   88  72  59 S7        30.02F HX  95
6HR MIN TEMP:  72; 6HR MAX TEMP:  89;

MOUNT PLEASANT MOSUNNY   87  72  61 S8        30.03F HX  93
6HR MIN TEMP:  68; 6HR MAX TEMP:  87;

GILMER         MOSUNNY   88  73  62 MISG        N/A  HX  96
MINEOLA        MOSUNNY   91  73  55 SW7       30.03F HX 100
TYLER          SUNNY     90  72  55 SW9       30.03F HX  97
6HR MIN TEMP:  73; 6HR MAX TEMP:  90;

LONGVIEW       MOSUNNY   88  73  61 W6        30.02F HX  95
6HR MIN TEMP:  71; 6HR MAX TEMP:  89;

MARSHALL       MOSUNNY   89  76  66 SW6       30.05F HX 100
6HR MIN TEMP:  73; 6HR MAX TEMP:  89;

ATHENS         PTSUNNY   88  72  58 CALM      30.01F HX  94
JACKSONVILLE   MOSUNNY   89  72  57 S7        30.07S HX  95
HENDERSON      PTSUNNY   89  71  56 SW5       30.05S HX  95
6HR MIN TEMP:  70; 6HR MAX TEMP:  89;

NACOGDOCHES    SUNNY     88  72  58 SW7       30.04F HX  94
6HR MIN TEMP:  68; 6HR MAX TEMP:  88;

LUFKIN         SUNNY     93  72  50 VRB6      30.03F HX 101
6HR MIN TEMP:  73; 6HR MAX TEMP:  93;

$$

SUPPLEMENTAL OBSERVATIONS (CENTRAL)

CITY           SKY/WX    TMP DP  RH WIND       PRES   REMARKS
LAKE TEXOMA      N/A     90  66  45 SW7         N/A  HX  92
CADDO GRASSLND   N/A     90  72  55 SW5         N/A  HX  96
PAT MAYSE LAKE   N/A     86  70  58 SE7         N/A  HX  90
ATHENS           N/A     91  70  49 S8          N/A  HX  97
LAKE LIMESTONE   N/A     90  75  62 SW6         N/A  HX 100
MCGREGOR         N/A     93  68  43 S6          N/A  HX  97
$$

SUPPLEMENTAL OBSERVATIONS (WEST)

CITY           SKY/WX    TMP DP  RH WIND       PRES   REMARKS
MILLERS CREEK    N/A     95  66  38 SW10        N/A  HX  98
LBJ GRASSLAND    N/A     95  68  41 S7          N/A  HX  99
COMANCHE         N/A     91  68  46 SW6G17      N/A  HX  95
HAMBY            N/A     93  64  38 SW14        N/A  HX  95